Regional Weather Roundup
Issued by NWS

Home | Current Version | Previous Version | Text Only | Print | Product List | Glossary Off
Versions: 1 2 3 4 5 6 7 8 9 10 11 12 13 14 15 16 17 18 19 20 21 22 23 24 25 26 27 28 29 30 31 32 33 34 35 36 37 38 39 40 41 42 43 44 45 46 47 48 49 50

000
ASUS43 KLOT 290410
RWRIL

ILLINOIS REGIONAL WEATHER ROUNDUP
NATIONAL WEATHER SERVICE CHICAGO/ROMEOVILLE IL
1000 PM CST FRI NOV 28 2014

NOTE: "FAIR" INDICATES FEW OR NO CLOUDS BELOW 12,000 FEET WITH NO
SIGNIFICANT WEATHER AND/OR OBSTRUCTIONS TO VISIBILITY.

* THESE STATIONS ARE NOT UNDER NWS QUALITY CONTROL. THEY ALSO MAY NOT
  REPORT WEATHER SUCH AS PRECIPITATION OR FOG.

ILZ001-002-007-009-015-016-024-290500-
NORTHWEST ILLINOIS

CITY           SKY/WX    TMP DP  RH WIND       PRES   REMARKS
MOLINE         CLEAR     29  26  89 E8        29.82F WCI  21
STERLING*      PTCLDY    30  25  80 SE5       29.85F WCI  25
SAVANNA*       PTCLDY    32  28  86 SE6       29.84F WCI  26
$$

ILZ003-004-008-010-011-017-018-290500-
NORTH CENTRAL ILLINOIS

CITY           SKY/WX    TMP DP  RH WIND       PRES   REMARKS
ROCKFORD       CLOUDY    33  29  85 SE9       29.89F WCI  25
FREEPORT*      MOCLDY    31  29  91 SE7       29.87F WCI  25
ROCHELLE*      MOCLDY    32  30  93 S12       29.87F WCI  23
DE KALB*       CLOUDY    31  29  92 SE12      29.89S FOG     WCI  22
PERU*          MOCLDY    35  32  89 S9        29.88F WCI  27
$$

ILZ005-006-012>014-019>023-290500-
NORTHEAST ILLINOIS

CITY           SKY/WX    TMP DP  RH WIND       PRES   REMARKS
CHICAGO-OHARE  CLOUDY    33  29  85 S8        29.91F WCI  26
CHICAGO-MIDWAY CLOUDY    36  28  73 S10       29.93F WCI  28
AURORA         CLOUDY    34  28  79 S10       29.90F HAZE    WCI  26
LANSING*       MOCLDY    32  27  80 S8        29.94S WCI  25
JOLIET*        MOCLDY    33  30  86 S8        29.92F WCI  27
WAUKEGAN       CLOUDY    32  27  81 S8        29.90F WCI  25
DUPAGE AIRPORT CLOUDY    34  30  85 S8        29.91F WCI  27
KANKAKEE*      PTCLDY    34  29  84 S12       29.92F WCI  25
WHEELING       CLOUDY    34  29  82 S8        29.93F WCI  27
MORRIS*        MOCLDY    33  31  94 S9        29.90F WCI  25
ROMEOVILLE*    CLOUDY    33  29  86 S9        29.92S WCI  25
NORTHERLY ISL    N/A     35  27  73 S8          N/A  WCI  29
$$

LMZ740>746-290500-
SOUTHERN LAKE MICHIGAN

STATION/POSITION SKY/WX   TEMP    WIND        PRES    VSBY  WAVE
                          AIR SEA DIR/SP/G                  HT/PER
                          (F)     (DEG/KT/KT) (MB)    (MI)  (FT/S)
SOUTHERN BUOY              36 42  180/ 21/ 25 1013.7F         6/ 7
WAUKEGAN HARBOR            34     180/ 14/ 17   N/A
HARRISON CRIB              35     180/ 16/ 19   N/A
BURNHAM HARBOR             35     170/  6/ 12   N/A
CALUMET HARBOR             34     160/  7/ 10 1012.5F
MICHIGAN CITY              32     140/ 14/ 19   N/A
$$

ILZ025>027-034>036-040-047-049-050-058-095>099-290500-
WEST-CENTRAL ILLINOIS

CITY           SKY/WX    TMP DP  RH WIND       PRES   REMARKS
QUINCY         MOCLDY    44  33  65 S13       29.80F
GALESBURG*     CLEAR     34  32  92 SE6       29.82S WCI  29
MACOMB*        CLEAR     34  32  92 S9        29.84F WCI  27
JACKSONVILLE*  PTCLDY    41  34  76 S12G17    29.85F
PITTSFIELD*    MOCLDY    44  34  69 S12       29.84F
$$

ILZ028>032-037-038-041>044-048-051>054-059>061-290500-
CENTRAL ILLINOIS

CITY           SKY/WX    TMP DP  RH WIND       PRES   REMARKS
PONTIAC        MOCLDY    35  32  88 S13       29.91F WCI  27
BLOOMINGTON    PTCLDY    35  31  86 S15       29.90S WCI  25
DECATUR        CLEAR     37  30  75 S13       29.92S WCI  29
PEORIA         CLEAR     37  30  75 S13       29.86F WCI  29
LACON*         PTCLDY    36  30  80 S10       29.86F WCI  28
LINCOLN*       CLEAR     37  32  82 S12       29.90F WCI  29
SPRINGFIELD    CLEAR     39  31  72 S16       29.89S WCI  30
TAYLORVILLE    CLEAR     36  32  87 S13       29.90F WCI  27
$$

ILZ033-039-045-046-055>057-062-063-290500-
EAST-CENTRAL ILLINOIS

CITY           SKY/WX    TMP DP  RH WIND       PRES   REMARKS
CHAMPAIGN      MOCLDY    35  30  82 S13       29.94F WCI  26
DANVILLE*      PTCLDY    35  28  75 S13       29.93F WCI  26
RANTOUL*       PTCLDY    35  31  87 S10       29.94S WCI  27
MATTOON        PTCLDY    35  28  75 S12       29.94F WCI  27
PARIS*         CLEAR     35  30  80 S10       29.98F WCI  28
$$

ILZ079-100>102-290500-
SOUTHWEST ILLINOIS

CITY           SKY/WX    TMP DP  RH WIND       PRES   REMARKS
ALTON          PTCLDY    40  33  75 S9        29.92S
BELLEVILLE     PTCLDY    41  35  79 S12       29.93S
CAHOKIA*       MOCLDY    41  34  76 S7        29.92S
SPARTA*        PTCLDY    42  33  68 S13       29.96S
$$

ILZ064>066-069>071-074>076-080>082-084>086-088>090-092>094-290500-
SOUTH-CENTRAL ILLINOIS

CITY           SKY/WX    TMP DP  RH WIND       PRES   REMARKS
CARBONDALE     CLEAR     45  28  51 S22G29    29.99F
CAIRO*         CLEAR     42  29  59 S6        30.04S
EFFINGHAM*     CLEAR     36  27  67 SE8       29.96S WCI  30
MARION         CLEAR     43  28  56 S10       30.00F
MT. VERNON     CLEAR     39  27  60 S10       29.98F WCI  32
CENTRALIA*     CLEAR     39  29  68 S10       29.95F WCI  32
SALEM*           N/A     41  30  65 S10       29.95F
METROPOLIS*    CLEAR     43  29  59 S8          N/A
$$

ILZ067-068-072-073-078-083-087-091-290500-
SOUTHEAST ILLINOIS

CITY           SKY/WX    TMP DP  RH WIND       PRES   REMARKS
LAWRENCEVILLE  CLEAR     34  28  79 S8        30.01F WCI  27
FLORA*         CLEAR     35  29  79 S9        29.98F WCI  28
FAIRFIELD*     CLEAR     38  29  71 S8        29.99S WCI  32
HARRISBURG*    CLEAR     42  28  56 S10       30.02F
ROBINSON*      CLEAR     35  28  76 S8        30.01F WCI  28
CARMI*         CLEAR     35  32  89 SE7       30.01F WCI  29
$$

ABBREVIATIONS USED IN REMARKS
   TC - TEMPERATURE IN CELSIUS
  WCI - WIND CHILL INDEX
   HX - HEAT INDEX
  VSB - VISIBILITY
$$




USA.gov is the U.S. government's official web portal to all federal, state and local government web resources and services.